Regional Weather Roundup
Issued by NWS

Home | Current Version | Previous Version | Graphics & Text | Print | Product List | Glossary On
Versions: 1 2 3 4 5 6 7 8 9 10 11 12 13 14 15 16 17 18 19 20 21 22 23 24 25 26 27 28 29 30 31 32 33 34 35 36 37 38 39 40 41 42 43 44 45 46 47 48 49 50
603
ASUS43 KOAX 271510
RWRNE

WEATHER ROUNDUP FOR NEBRASKA
NATIONAL WEATHER SERVICE OMAHA NE
1000 AM CDT WED JUL 27 2016

NOTES: SATELLITE DATA IS BEING USED TO AUGMENT CLOUD COVER ABOVE
       12000 FEET.
       "FAIR" INDICATES FEW OR NO CLOUDS BELOW 12,000 FEET WITH NO
       SIGNIFICANT WEATHER AND/OR OBSTRUCTIONS TO VISIBILITY.

  * THESE STATIONS DO NOT REPORT WEATHER SUCH AS RAIN...SNOW OR FOG.

NEZ001>004-019>022-054>056-271600-
NEBRASKA PANHANDLE

CITY           SKY/WX    TMP DP  RH WIND       PRES   REMARKS
SCOTTSBLUFF    MOSUNNY   69  60  73 E13       30.15F
ALLIANCE       CLOUDY    65  60  84 NW8       30.16F
CHADRON        PTSUNNY   66  60  81 SW9       30.10F
KIMBALL        SUNNY     68  60  77 E9        30.21F
SIDNEY         CLOUDY    68  58  70 N10       30.22F
$$

NEZ057>060-069>072-079>082-271600-
SOUTHWEST NEBRASKA

CITY           SKY/WX    TMP DP  RH WIND       PRES   REMARKS
NORTH PLATTE   CLOUDY    69  61  75 NE3       30.10R
IMPERIAL       SUNNY     71  60  68 SW9       30.11F
LEXINGTON      SUNNY     69  64  81 NW8       30.08S
MCCOOK         SUNNY     72  60  66 W6        30.07S
OGALLALA       MOSUNNY   74  60  60 W10       30.15R
$$

NEZ005>010-023>029-035>040-094-271600-
NORTH CENTRAL NEBRASKA

CITY           SKY/WX    TMP DP  RH WIND       PRES   REMARKS
VALENTINE      MOSUNNY   73  59  61 MISG      30.10R
AINSWORTH      SUNNY     71  63  75 NW8       30.10R
BROKEN BOW     SUNNY     72  65  78 N6        30.10R
O`NEILL        SUNNY     73  59  59 N8        30.09S
ORD            SUNNY     72  61  68 N9        30.08R
THEDFORD       CLOUDY    69  62  77 NW5       30.13R
$$

NEZ041-046>049-061>064-073>077-083>087-271600-
SOUTH CENTRAL NEBRASKA

CITY           SKY/WX    TMP DP  RH WIND       PRES   REMARKS
GRAND ISLAND   SUNNY     72  62  71 N8        30.08R
AURORA         SUNNY     73  64  73 N6        30.07S
HASTINGS       SUNNY     72  64  76 N7        30.08R
HEBRON         SUNNY     77  66  68 W6        30.04S
HOLDREGE       SUNNY     72  62  71 W5        30.06S
KEARNEY *      SUNNY     75  16  10 W9        30.06R
YORK           SUNNY     75  64  69 N7        30.06F
$$

NEZ011>018-030>034-042>045-271600-
NORTHEAST NEBRASKA

CITY           SKY/WX    TMP DP  RH WIND       PRES   REMARKS
NORFOLK        SUNNY     77  66  68 N15       30.04R
ALBION         SUNNY     72  65  80 N9        30.07R
BLAIR          CLOUDY    77  69  76 S9        30.00F
FREMONT        SUNNY     78  67  68 SW8       30.00S
TEKAMAH        CLOUDY    74  68  81 E7        29.98F
WAYNE          MOSUNNY   78  69  75 N12       30.03R
$$

NEZ050>053-065>068-078-088>093-271600-
SOUTHEAST NEBRASKA

CITY           SKY/WX    TMP DP  RH WIND       PRES   REMARKS
LINCOLN        PTSUNNY   80  63  55 NW8       30.04R
OMAHA EPPLEY   CLOUDY    78  68  71 SW8       30.01R
BEATRICE       SUNNY     79  69  69 NW9       30.03R
FALLS CITY     SUNNY     79  70  74 S6        29.98R
NEBRASKA CITY  PTSUNNY   78  72  81 NW10      30.03R
PLATTSMOUTH    CLOUDY    77  71  82 W7        30.04R
$$

NEZ044-045-051>053-067-271600-
OMAHA AREA

CITY           SKY/WX    TMP DP  RH WIND       PRES   REMARKS
OMAHA EPPLEY   CLOUDY    78  68  71 SW8       30.01R
BLAIR          CLOUDY    77  69  76 S9        30.00F
FREMONT        SUNNY     78  67  68 SW8       30.00S
MILLARD        MOSUNNY   78  69  73 CALM      30.01F
OFFUTT AFB     CLOUDY    78  70  75 W8        30.02R
PLATTSMOUTH    CLOUDY    77  71  82 W7        30.04R
WAHOO          FAIR      80  65  60 SW5       30.00F
$$




USA.gov is the U.S. government's official web portal to all federal, state and local government web resources and services.